This is the latest recevied weather packets stored in our database for station/object KE8WMS. If no packets are shown the sender has not sent any weather packets the latest 10 day(s).
| Time | Temp. | Humidity | Pressure | Rain* | Wind** | Luminosity | Snow |
|---|---|---|---|---|---|---|---|
| 1777242873 | 10° C | 89% | 1016.8 hPa | 0 mm | - | 50 W/m² | - |
| 1777242571 | 9.44° C | 90% | 1017.6 hPa | 0 mm | - | 52 W/m² | - |
| 1777242266 | 10° C | 90% | 1018 hPa | 0 mm | - | 54 W/m² | - |
| 1777241964 | 9.44° C | 90% | 1018.1 hPa | 0 mm | - | 56 W/m² | - |
| 1777241661 | 9.44° C | 90% | 1017.8 hPa | 0 mm | - | 75 W/m² | - |
| 1777241358 | 9.44° C | 90% | 1018 hPa | 0 mm | - | 73 W/m² | - |
| 1777241056 | 9.44° C | 91% | 1017.8 hPa | 0 mm | - | 76 W/m² | - |
| 1777240754 | 9.44° C | 90% | 1018 hPa | 0 mm | - | 57 W/m² | - |
| 1777240451 | 10° C | 89% | 1017.8 hPa | 0 mm | - | 126 W/m² | - |
| 1777240148 | 10° C | 89% | 1018 hPa | 0 mm | - | 252 W/m² | - |
| 1777239846 | 10° C | 90% | 1017.8 hPa | 0 mm | - | 271 W/m² | - |
| 1777239542 | 10° C | 90% | 1017.9 hPa | 0 mm | - | 289 W/m² | - |
| 1777239239 | 10° C | 91% | 1018.1 hPa | 0 mm | - | 304 W/m² | - |
| 1777238936 | 9.44° C | 91% | 1018 hPa | 0 mm | - | 320 W/m² | - |
| 1777238634 | 10° C | 91% | 1017.9 hPa | 0 mm | - | 351 W/m² | - |
| 1777238330 | 10° C | 92% | 1017.8 hPa | 0 mm | - | 377 W/m² | - |
| 1777238027 | 9.44° C | 91% | 1017.7 hPa | 0 mm | - | 394 W/m² | - |
| 1777237723 | 9.44° C | 92% | 1017.9 hPa | 0 mm | - | 411 W/m² | - |
| 1777237420 | 9.44° C | 92% | 1017.7 hPa | 0 mm | - | 183 W/m² | - |
| 1777237118 | 9.44° C | 92% | 1017.7 hPa | 0 mm | - | 377 W/m² | - |
| 1777236815 | 10° C | 91% | 1017.9 hPa | 0 mm | - | 438 W/m² | - |
| 1777236515 | 9.44° C | 93% | 1017.6 hPa | 0 mm | - | 444 W/m² | - |
| 1777236212 | 9.44° C | 93% | 1017.7 hPa | 0 mm | - | 505 W/m² | - |
| 1777235907 | 8.89° C | 93% | 1017.6 hPa | 0 mm | - | 316 W/m² | - |
| 1777235604 | 8.89° C | 93% | 1017.5 hPa | 0 mm | - | 634 W/m² | - |
* Rain latest hour (hover to see other rain measurements)
** Current wind speed in m/s (hover to see current wind gust speed)